Satellite: NOAA-11
Catalog number: 19531
Epoch time:      08283.30518622
Element set:     351
Inclination:      098.7949 deg
RA of node:       011.0233 deg
Eccentricity:    0.0012270
Arg of perigee:   102.1847 deg
Mean anomaly:     258.0734 deg
Mean motion:   14.14879959 rev/day
Decay rate:       2.14e-06 rev/day^2
Epoch rev:            3404
Checksum:              283

Satellite: NOAA-12
Catalog number: 21263
Epoch time:      08283.60906975
Element set:     867
Inclination:      098.7730 deg
RA of node:       285.5801 deg
Eccentricity:    0.0012616
Arg of perigee:   149.1704 deg
Mean anomaly:     211.0217 deg
Mean motion:   14.25548913 rev/day
Decay rate:        2.1e-07 rev/day^2
Epoch rev:           90469
Checksum:              304

Satellite: MET-3/5
Catalog number: 21655
Epoch time:      08282.91922053
Element set:    0500
Inclination:      082.5590 deg
RA of node:       024.0211 deg
Eccentricity:    0.0014766
Arg of perigee:   088.7580 deg
Mean anomaly:     271.5234 deg
Mean motion:   13.17017020 rev/day
Decay rate:        5.1e-07 rev/day^2
Epoch rev:           82455
Checksum:              269

Satellite: MET-2/21
Catalog number: 22782
Epoch time:      08282.81514807
Element set:     269
Inclination:      082.5511 deg
RA of node:       021.4245 deg
Eccentricity:    0.0021865
Arg of perigee:   335.3573 deg
Mean anomaly:     024.6529 deg
Mean motion:   13.83632857 rev/day
Decay rate:        4.0e-08 rev/day^2
Epoch rev:           76284
Checksum:              305

Satellite: OKEAN-4
Catalog number: 23317
Epoch time:      08282.84410262
Element set:    0716
Inclination:      082.5399 deg
RA of node:       209.0093 deg
Eccentricity:    0.0023731
Arg of perigee:   110.7461 deg
Mean anomaly:     249.6318 deg
Mean motion:   14.82640004 rev/day
Decay rate:       1.85e-06 rev/day^2
Epoch rev:           75512
Checksum:              282

Satellite: NOAA-14
Catalog number: 23455
Epoch time:      08283.21000548
Element set:     342
Inclination:      098.9357 deg
RA of node:       355.4599 deg
Eccentricity:    0.0009522
Arg of perigee:   176.8264 deg
Mean anomaly:     183.2994 deg
Mean motion:   14.13747994 rev/day
Decay rate:      -2.08e-06 rev/day^2
Epoch rev:           71046
Checksum:              331

Satellite: NOAA-15
Catalog number: 25338
Epoch time:      08283.47993115
Element set:     654
Inclination:      098.5665 deg
RA of node:       272.4911 deg
Eccentricity:    0.0011617
Arg of perigee:   070.8852 deg
Mean anomaly:     289.3575 deg
Mean motion:   14.24727269 rev/day
Decay rate:       -1.8e-07 rev/day^2
Epoch rev:           54107
Checksum:              334

Satellite: RESURS
Catalog number: 25394
Epoch time:      08283.69742073
Element set:      41
Inclination:      098.3755 deg
RA of node:       322.3716 deg
Eccentricity:    0.0000582
Arg of perigee:   202.4247 deg
Mean anomaly:     157.6907 deg
Mean motion:   14.24172456 rev/day
Decay rate:        9.0e-08 rev/day^2
Epoch rev:           53274
Checksum:              296

Satellite: FENGYUN1
Catalog number: 25730
Epoch time:      08282.91958198
Element set:    0587
Inclination:      098.7336 deg
RA of node:       254.9042 deg
Eccentricity:    0.0019590
Arg of perigee:   204.4770 deg
Mean anomaly:     155.5472 deg
Mean motion:   14.07801539 rev/day
Decay rate:       5.50e-06 rev/day^2
Epoch rev:           48496
Checksum:              335

Satellite: OKEAN-0
Catalog number: 25860
Epoch time:      08282.79019300
Element set:    0494
Inclination:      097.7617 deg
RA of node:       268.3767 deg
Eccentricity:    0.0000628
Arg of perigee:   047.9042 deg
Mean anomaly:     312.2217 deg
Mean motion:   14.73538422 rev/day
Decay rate:        1.7e-07 rev/day^2
Epoch rev:           49612
Checksum:              303

Satellite: NOAA-16
Catalog number: 26536
Epoch time:      08283.46549571
Element set:     128
Inclination:      099.1683 deg
RA of node:       275.2050 deg
Eccentricity:    0.0009716
Arg of perigee:   264.5159 deg
Mean anomaly:     095.4948 deg
Mean motion:   14.12499504 rev/day
Decay rate:       2.45e-06 rev/day^2
Epoch rev:           41490
Checksum:              331

Satellite: NOAA-17
Catalog number: 27453
Epoch time:      08283.23289728
Element set:     128
Inclination:      098.5221 deg
RA of node:       344.4869 deg
Eccentricity:    0.0012590
Arg of perigee:   133.4700 deg
Mean anomaly:     226.7555 deg
Mean motion:   14.24007299 rev/day
Decay rate:       -5.2e-07 rev/day^2
Epoch rev:           32703
Checksum:              306

Satellite: NOAA-18
Catalog number: 28654
Epoch time:      08283.20486528
Element set:     615
Inclination:      098.8765 deg
RA of node:       222.7724 deg
Eccentricity:    0.0014493
Arg of perigee:   355.7869 deg
Mean anomaly:     004.3184 deg
Mean motion:   14.11197077 rev/day
Decay rate:      -1.66e-06 rev/day^2
Epoch rev:           17455
Checksum:              339

/EX
SB KEPS @ AMSAT  $ORB08283.M
Orbital Elements  08283.MISC

HR AMSAT ORBITAL ELEMENTS FOR MANNED AND MISCELLANEOUS SATELLITES
FROM WA5QGD FORT WORTH,TX October 9, 2008
Send Subscribe/unsubscribe to KEPS at 
http://www.amsat.org/mailman/listinfo/keps
BID: ORB08283.M
TO ALL RADIO AMATEURS BT

Satellite: HUBBLE
Catalog number: 20580
Epoch time:      08282.49108030
Element set:    0251
Inclination:      028.4705 deg
RA of node:       304.2060 deg
Eccentricity:    0.0003909
Arg of perigee:   147.6594 deg
Mean anomaly:     212.4235 deg
Mean motion:   15.00414011 rev/day
Decay rate:       3.28e-06 rev/day^2
Epoch rev:           81201
Checksum:              236

Satellite: PO-34
Catalog number: 25520
Epoch time:      08282.92813465
Element set:    0097
Inclination:      028.4585 deg
RA of node:       137.2701 deg
Eccentricity:    0.0005508
Arg of perigee:   087.2232 deg
Mean anomaly:     272.8995 deg
Mean motion:   15.17238693 rev/day
Decay rate:       5.11e-06 rev/day^2
Epoch rev:           55045
Checksum:              313

Satellite: ISS
Catalog number: 25544
Epoch time:      08283.45349883
Element set:     412
Inclination:      051.6426 deg
RA of node:       150.4904 deg
Eccentricity:    0.0004029
Arg of perigee:   196.0234 deg
Mean anomaly:     226.3163 deg
Mean motion:   15.72108062 rev/day
Decay rate:      9.869e-05 rev/day^2
Epoch rev:           56651
Checksum:              297

Satellite: CO-58
Catalog number: 28895
Epoch time:      08282.36260956
Element set:    0140
Inclination:      098.0828 deg
RA of node:       173.6120 deg
Eccentricity:    0.0018798
Arg of perigee:   058.4969 deg
Mean anomaly:     301.8042 deg
Mean motion:   14.59701744 rev/day
Decay rate:        3.3e-07 rev/day^2
Epoch rev:           15699
Checksum:              343

Satellite: FALCON
Catalog number: 30776
Epoch time:      08282.96382333
Element set:    0419
Inclination:      035.4335 deg
RA of node:       183.4268 deg
Eccentricity:    0.0001568
Arg of perigee:   291.3352 deg
Mean anomaly:     068.7197 deg
Mean motion:   15.03068107 rev/day
Decay rate:       4.12e-06 rev/day^2
Epoch rev:           08727
Checksum:              303

Satellite: MAST
Catalog number: 31126
Epoch time:      08282.69466363
Element set:    0434
Inclination:      098.0265 deg
RA of node:       342.5204 deg
Eccentricity:    0.0094498
Arg of perigee:   340.7901 deg
Mean anomaly:     018.9725 deg
Mean motion:   14.53448867 rev/day
Decay rate:        7.6e-07 rev/day^2
Epoch rev:           07850
Checksum:              320

Satellite: CAPE1
Catalog number: 31130
Epoch time:      08282.82807652
Element set:    0425
Inclination:      098.0288 deg
RA of node:       341.3999 deg
Eccentricity:    0.0102735
Arg of perigee:   344.1721 deg
Mean anomaly:     015.6242 deg
Mean motion:   14.51995861 rev/day
Decay rate:        5.0e-08 rev/day^2
Epoch rev:           07821
Checksum:              294

Satellite: COMPASS
Catalog number: 32787
Epoch time:      08282.25186501
Element set:    0168
Inclination:      097.9768 deg
RA of node:       341.7502 deg
Eccentricity:    0.0016699
Arg of perigee:   127.9917 deg
Mean anomaly:     232.2804 deg
Mean motion:   14.81470779 rev/day
Decay rate:       1.01e-06 rev/day^2
Epoch rev:           02414
Checksum:              316

Satellite: AAUSAT2
Catalog number: 32788
Epoch time:      08282.91519856
Element set:    0169
Inclination:      097.9779 deg
RA of node:       342.4315 deg
Eccentricity:    0.0016529
Arg of perigee:   126.4486 deg
Mean anomaly:     233.8229 deg
Mean motion:   14.81582586 rev/day
Decay rate:       -2.3e-07 rev/day^2
Epoch rev:           02424
Checksum:              339

Satellite: DO-64
Catalog number: 32789
Epoch time:      08282.86031353
Element set:    0182
Inclination:      097.9782 deg
RA of node:       342.4174 deg
Eccentricity:    0.0016676
Arg of perigee:   126.1149 deg
Mean anomaly:     234.1609 deg
Mean motion:   14.81488783 rev/day
Decay rate:        7.7e-07 rev/day^2
Epoch rev:           02423
Checksum:              329

Satellite: CO-66
Catalog number: 32791
Epoch time:      08282.47018044
Element set:    0165
Inclination:      097.9792 deg
RA of node:       341.9889 deg
Eccentricity:    0.0016996
Arg of perigee:   124.8657 deg
Mean anomaly:     235.4160 deg
Mean motion:   14.81323452 rev/day
Decay rate:       2.24e-06 rev/day^2
Epoch rev:           02414
Checksum:              326

Satellite: RS-30
Catalog number: 32953
Epoch time:      08282.57874939
Element set:    0129
Inclination:      082.5011 deg
RA of node:       053.0636 deg
Eccentricity:    0.0019063
Arg of perigee:   010.6868 deg
Mean anomaly:     349.4619 deg
Mean motion:   12.42997703 rev/day
Decay rate:        1.0e-07 rev/day^2
Epoch rev:           01713
Checksum:              301

/EX





More information about the Keps mailing list